Location: Équennes
(49.7375°N, 1.9622°E)
Time: 19:07:28
(UTC+00:00)

Cosmos 2278 - Pass Details

Date: 03 October 2023
Orbit: 838 x 853 km, 71.1° (Epoch: 08 December)

Event Time Altitude Azimuth Distance (km) Brightness Sun altitude
Rises 18:32:20 0° 274° (W) 3,407 9.1 -11.4°
Reaches altitude 10° 18:36:04 10° 299° (WNW) 2,478 7.4 -12.0°
Maximum altitude 18:39:04 14° 331° (NNW) 2,186 6.4 -12.4°
Drops below altitude 10° 18:42:05 10° 3° (N) 2,488 6.2 -12.9°
Sets 18:45:51 0° 28° (NNE) 3,429 6.7 -13.5°
